Location: Seasalter
(51.3333°N, 1.0167°E)
Time: 12:45:10
(UTC+00:00)

ATLAS 2AS CENTAUR R/B - Pass Details

Date: 26 September 2023
Orbit: 998 x 1213 km, 63.7° (Epoch: 17 November)

Event Time Altitude Azimuth Distance (km) Brightness Sun altitude
Exits shadow 03:33:22 28° 209° (SSW) 2,068 3.7 -21.1°
Maximum altitude 03:37:41 76° 130° (SE) 1,205 2.9 -20.5°
Drops below altitude 10° 03:44:54 10° 46° (NE) 3,012 6.1 -19.5°
Sets 03:47:32 0° 45° (NE) 3,943 6.9 -19.1°
